Date,TemperatureHighF,TemperatureAvgF,TemperatureLowF,DewpointHighF,DewpointAvgF,DewpointLowF,HumidityHigh,HumidityAvg,HumidityLow,PressureMaxIn,PressureMinIn,WindSpeedMaxMPH,WindSpeedAvgMPH,GustSpeedMaxMPH,PrecipitationSumIn
2013-1-1,58.0,53.1,50.5,53.3,47.8,-99.9,93,85,71,30.12,29.94,4,1,6,0.00
2013-1-2,54.8,46.6,40.9,52.8,44.4,36.0,95,92,82,30.15,29.89,15,7,15,0.23
2013-1-3,43.1,41.6,35.2,40.1,37.5,32.6,92,85,81,30.22,30.11,13,6,15,0.05
2013-1-4,50.7,40.0,30.2,36.5,32.7,28.9,95,77,48,30.29,30.17,4,0,6,0.00
2013-1-5,46.5,38.3,29.5,36.5,29.9,24.5,83,72,52,30.37,30.23,7,2,9,0.00
2013-1-6,49.1,44.9,38.5,44.7,40.4,34.1,95,84,71,30.26,30.06,5,0,0,0.06
2013-1-7,48.4,44.7,37.5,44.6,39.7,34.8,95,83,71,30.42,30.10,18,9,0,0.00
2013-1-8,56.9,49.6,41.8,54.6,46.5,37.9,94,89,83,30.43,30.34,13,5,0,0.00
2013-1-9,61.1,52.0,44.9,56.0,49.7,43.6,95,92,78,30.41,30.32,4,1,5,0.00
2013-1-10,56.3,52.5,47.5,54.6,46.7,39.9,95,81,63,30.49,30.36,20,8,21,0.00
2013-1-11,63.5,57.3,48.7,61.7,54.7,45.0,94,91,82,30.42,30.14,16,5,16,0.10
2013-1-12,67.4,59.9,56.1,65.6,58.0,54.1,95,93,90,30.16,30.08,6,1,8,0.01
2013-1-13,64.4,59.4,55.4,62.0,57.1,53.1,94,92,91,30.16,30.09,7,2,8,0.01
2013-1-14,74.3,63.9,58.9,66.9,61.2,57.3,95,91,75,30.19,30.09,6,1,7,0.00
2013-1-15,66.0,57.4,52.7,64.4,55.7,50.7,95,94,92,30.18,30.06,13,5,14,0.19
2013-1-16,72.5,63.2,55.6,68.1,60.3,53.4,95,91,79,30.06,29.95,6,1,7,0.01
2013-1-17,71.2,56.9,42.1,66.2,54.9,40.5,95,93,82,29.98,29.79,23,8,24,0.28
2013-1-18,45.4,41.1,37.6,41.1,32.4,-99.9,96,76,58,30.51,29.88,12,-14,19,0.00
2013-1-19,56.2,45.1,32.6,49.8,36.9,-99.9,95,81,62,30.47,30.16,9,-22,9,0.00
2013-1-20,62.7,53.1,45.2,49.8,47.1,40.3,96,81,55,30.16,29.97,2,0,4,0.00
2013-1-21,60.5,51.6,42.1,52.3,44.8,36.7,87,78,64,30.05,29.86,6,1,8,0.00
2013-1-22,52.7,40.2,31.3,42.0,21.0,11.6,71,47,28,30.25,29.89,8,2,13,0.00
2013-1-23,40.2,32.5,27.1,29.5,15.2,8.0,74,50,32,30.35,30.12,9,2,15,0.00
2013-1-24,49.7,37.3,27.2,40.3,24.4,10.1,77,60,43,30.49,29.96,14,7,23,0.00
2013-1-25,36.5,31.6,26.3,34.1,25.0,10.9,95,77,50,30.48,30.06,9,4,12,0.18
2013-1-26,36.7,33.2,29.2,35.1,31.2,27.9,95,92,89,30.35,30.08,1,0,2,0.00
2013-1-27,40.4,35.9,30.5,31.0,29.5,28.0,94,78,61,30.54,30.36,18,5,21,0.00
2013-1-28,58.7,44.8,36.0,57.0,42.0,31.0,95,90,82,30.49,30.23,0,0,0,0.00
2013-1-29,68.4,58.0,51.4,60.9,55.5,49.6,95,92,68,30.23,30.11,0,0,2,0.00
2013-1-30,63.1,59.5,52.2,60.7,57.4,50.8,95,93,88,30.13,29.64,20,5,23,0.00
2013-1-31,65.1,53.9,44.1,63.3,42.4,27.5,95,67,34,30.04,29.50,25,2,27,0.11
2013-2-1,54.0,42.9,27.9,36.0,24.4,10.4,62,49,25,30.36,29.98,9,3,20,0.00
2013-2-2,47.6,23.9,24.6,38.3,-12.4,-99.9,86,47,46,30.38,30.01,9,2,10,0.00
2013-2-3,52.1,43.8,37.6,40.0,35.8,31.0,90,74,49,30.01,29.83,5,1,9,0.00
2013-2-4,47.9,40.8,29.6,38.2,29.3,23.7,84,65,39,30.13,29.96,11,2,13,0.00
2013-2-5,60.4,51.8,42.0,49.2,42.6,36.7,85,72,50,30.03,29.87,8,2,12,0.00
2013-2-6,61.8,52.6,44.6,49.0,45.1,37.2,93,78,42,30.23,29.95,15,5,16,0.00
2013-2-7,55.8,53.0,48.7,53.4,49.9,45.8,95,89,84,30.25,29.83,29,15,39,1.17
2013-2-8,59.9,52.6,46.7,57.8,50.2,39.5,95,91,76,29.93,29.43,29,3,30,1.09
2013-2-9,51.4,32.6,37.3,39.3,0.1,-99.9,78,49,35,30.33,29.94,10,-234,10,0.00
2013-2-10,53.2,44.2,34.6,50.3,37.8,29.1,94,78,67,30.46,30.29,9,3,13,0.00
2013-2-11,63.0,59.6,51.3,61.7,57.1,49.3,97,91,85,30.31,29.91,10,6,18,0.09
2013-2-12,62.9,57.5,52.0,58.5,51.5,39.4,95,82,44,30.05,29.91,8,2,13,0.04
2013-2-13,57.6,51.9,49.2,56.5,49.6,-99.9,97,93,86,29.98,29.61,10,-2,14,0.46
2013-2-14,51.9,46.2,41.7,47.8,40.8,37.5,92,82,73,30.06,29.74,12,4,16,0.00
2013-2-15,53.0,34.6,40.1,44.5,7.9,-99.9,95,65,53,30.08,29.94,10,-227,10,0.00
2013-2-16,50.4,42.5,34.4,44.3,39.1,32.6,95,88,75,29.94,29.65,16,7,19,0.12
2013-2-17,37.7,33.1,28.5,32.5,21.0,11.8,94,64,36,30.25,29.79,11,6,19,0.01
2013-2-18,46.8,37.1,24.6,37.9,20.5,9.9,72,52,22,30.43,30.26,12,4,15,0.00
2013-2-19,58.6,52.1,43.6,54.8,47.7,38.0,93,85,72,30.30,29.88,15,6,20,0.18
2013-2-20,54.4,46.7,38.7,44.5,30.8,14.7,93,59,23,30.09,29.91,8,3,15,0.00
2013-2-21,53.9,42.5,32.7,37.5,31.6,21.5,85,66,29,30.23,30.05,18,6,21,0.00
2013-2-22,53.4,43.8,39.2,52.0,37.5,28.4,96,79,62,30.31,30.07,19,12,21,0.00
2013-2-23,60.1,52.9,47.8,59.3,51.9,47.0,98,96,92,30.06,29.80,16,4,18,0.92
2013-2-24,59.5,50.7,46.2,50.9,48.2,45.7,98,91,68,29.97,29.73,8,2,9,0.00
2013-2-25,49.1,42.8,39.1,48.3,36.3,31.8,97,78,66,30.17,29.97,25,15,25,0.00
2013-2-26,64.6,55.1,44.3,63.9,53.0,40.4,98,93,86,30.08,29.58,22,14,24,1.17
2013-2-27,60.7,53.7,50.5,59.0,47.5,41.5,97,80,62,29.77,29.59,13,6,17,0.00
2013-2-28,56.4,49.7,43.1,46.7,39.4,33.0,86,68,52,29.80,29.67,7,4,12,0.00
2013-3-1,52.0,43.9,34.9,39.0,33.2,29.1,83,67,44,29.87,29.77,10,3,12,0.00
2013-3-2,53.4,44.3,36.7,38.6,33.0,30.2,83,65,43,29.87,29.76,12,3,12,0.00
2013-3-3,45.8,39.0,32.0,31.0,27.0,24.5,78,63,44,29.90,29.80,8,3,13,0.00
2013-3-4,46.8,37.9,29.3,26.8,22.4,17.4,71,55,31,30.07,29.90,8,4,16,0.00
2013-3-5,59.0,47.7,36.0,54.2,37.9,24.3,92,70,52,30.09,29.64,14,4,16,0.00
2013-3-6,60.2,48.0,40.5,57.1,39.0,27.9,90,72,48,29.84,29.45,18,12,26,0.10
2013-3-7,54.1,45.1,38.0,34.7,31.7,29.3,76,60,41,30.13,29.84,12,7,18,0.00
2013-3-8,52.1,44.0,34.9,31.6,28.4,25.3,74,56,37,30.16,30.04,12,6,18,0.00
2013-3-9,58.0,47.0,35.9,42.5,33.2,29.3,80,60,36,30.26,30.15,14,7,19,0.00
2013-3-10,52.5,47.3,36.1,48.2,41.5,30.1,90,80,64,30.29,30.23,14,8,15,0.00
2013-3-11,62.6,55.0,48.8,54.6,50.8,46.0,93,86,73,30.25,29.99,12,5,12,0.00
2013-3-12,63.4,59.5,56.3,61.6,57.1,54.1,97,92,83,29.99,29.76,15,10,17,0.92
2013-3-13,56.5,51.3,46.3,55.4,42.4,34.8,97,72,45,30.02,29.83,13,6,17,0.00
2013-3-14,50.7,44.3,34.3,33.9,26.2,21.2,63,50,32,30.17,30.01,8,4,14,0.00
2013-3-15,54.7,46.3,34.5,42.8,30.8,19.9,77,56,31,30.16,29.94,15,6,19,0.00
2013-3-16,66.1,59.5,54.7,53.0,49.7,43.6,80,70,56,29.94,29.71,16,10,24,0.00
2013-3-17,58.8,52.5,47.9,51.7,48.3,44.1,96,86,76,30.14,29.82,26,16,30,0.00
2013-3-18,58.8,52.9,48.7,54.7,50.2,45.9,95,90,82,30.13,29.88,28,9,29,0.00
2013-3-19,66.3,57.9,52.8,57.5,52.8,43.6,97,84,52,29.94,29.73,13,4,14,0.32
2013-3-20,53.2,50.4,46.0,42.5,27.1,15.2,68,41,23,30.08,29.79,14,6,16,0.00
2013-3-21,51.8,43.5,36.4,38.8,32.0,16.7,90,65,44,29.91,29.65,16,4,19,0.00
2013-3-22,46.7,38.5,27.4,34.8,23.1,13.4,72,54,32,30.05,29.91,15,5,17,0.00
2013-3-23,54.6,47.6,39.2,40.6,33.7,26.4,82,60,35,30.02,29.90,8,2,10,0.00
2013-3-24,57.9,50.4,42.9,55.9,46.1,37.3,95,85,65,29.93,29.39,27,15,33,0.32
2013-3-25,50.8,45.3,42.3,43.7,38.3,28.1,95,78,55,29.76,29.45,10,6,18,0.00
2013-3-26,49.6,42.8,33.9,34.1,29.7,26.5,75,60,44,30.03,29.76,6,4,11,0.00
2013-3-27,54.6,44.9,35.5,34.4,29.4,24.5,78,57,31,30.15,30.03,8,4,13,0.00
2013-3-28,53.8,44.9,35.5,32.9,27.6,25.0,70,52,33,30.22,30.11,8,3,13,0.00
2013-3-29,56.3,46.3,35.0,40.6,33.3,26.7,82,62,36,30.28,30.18,9,4,11,0.00
2013-3-30,63.2,53.8,47.6,50.3,44.4,37.9,87,72,40,30.22,30.11,7,3,9,0.00
2013-3-31,66.0,58.9,51.7,56.6,53.0,46.2,93,81,64,30.13,29.84,20,8,24,0.00
2013-4-1,63.3,59.5,56.0,59.0,56.4,54.3,95,90,84,29.87,29.79,12,5,13,0.02
2013-4-2,56.2,52.1,48.5,54.5,40.4,31.1,95,65,46,30.12,29.87,17,9,23,0.00
2013-4-3,54.1,50.1,47.6,46.1,39.9,33.4,87,69,53,30.27,30.09,22,12,25,0.00
2013-4-4,59.6,52.0,48.7,58.2,45.0,35.5,96,77,58,30.30,29.75,31,23,36,0.89
2013-4-5,62.1,51.9,45.5,61.2,48.9,43.9,97,89,75,29.98,29.68,21,6,21,0.05
2013-4-6,53.9,49.3,45.1,46.0,43.1,35.6,93,80,54,30.28,29.99,27,14,29,0.00
2013-4-7,64.3,55.2,44.5,56.8,50.7,41.7,94,85,72,30.26,30.16,8,5,9,0.00
2013-4-8,69.6,63.4,57.9,61.8,58.4,54.5,91,84,71,30.19,30.11,15,8,17,0.00
2013-4-9,73.3,67.9,62.6,65.1,61.9,58.7,89,81,71,30.21,30.11,15,9,19,0.00
2013-4-10,76.1,68.8,63.9,64.5,62.4,60.1,95,81,59,30.13,30.01,15,8,20,0.00
2013-4-11,76.2,69.9,63.8,69.3,65.3,61.1,92,85,73,30.02,29.89,16,9,21,0.00
2013-4-12,73.7,69.1,66.6,70.2,66.6,64.3,95,92,88,29.90,29.68,20,14,23,0.42
2013-4-13,66.8,60.9,58.2,65.2,54.5,47.2,96,80,66,30.01,29.74,27,12,28,0.00
2013-4-14,71.5,63.9,54.4,60.4,54.8,49.0,92,73,48,30.11,30.00,18,4,18,0.00
2013-4-15,69.7,65.5,61.6,63.0,60.6,57.3,94,84,75,30.18,29.99,32,10,32,0.21
2013-4-16,68.8,65.7,62.3,64.1,62.7,60.8,97,90,82,30.26,30.16,15,9,15,0.10
2013-4-17,72.6,67.2,57.6,64.8,62.2,56.2,96,84,73,30.23,30.14,8,5,10,0.00
2013-4-18,73.8,70.3,67.5,65.7,64.2,62.7,88,81,71,30.21,30.09,12,7,15,0.00
2013-4-19,75.4,71.5,67.4,71.6,68.5,65.6,95,90,86,30.09,29.89,25,17,27,0.36
2013-4-20,72.5,60.2,53.4,69.6,55.6,48.1,97,85,74,30.24,29.85,22,7,24,1.86
2013-4-21,59.0,56.1,50.6,50.9,46.6,41.0,85,71,53,30.43,30.23,34,25,38,0.00
2013-4-22,55.8,53.9,50.9,54.4,51.3,46.6,96,91,83,30.39,30.11,20,15,25,0.34
2013-4-23,59.8,55.8,53.6,54.4,52.3,50.3,96,88,75,30.17,30.05,17,11,20,0.00
2013-4-24,67.7,60.7,50.8,63.3,56.2,48.0,91,85,77,30.19,30.05,14,7,18,0.00
2013-4-25,67.7,61.5,53.1,64.1,56.8,47.4,92,85,75,30.26,30.05,29,14,29,0.01
2013-4-26,61.9,57.8,52.8,52.6,49.1,39.6,90,73,44,30.38,30.25,22,14,23,0.00
2013-4-27,63.5,60.7,56.6,54.9,52.2,46.9,87,74,55,30.37,30.28,22,16,22,0.00
2013-4-28,66.7,62.0,58.9,59.4,53.3,44.1,84,73,53,30.28,30.13,17,12,19,0.00
2013-4-29,66.6,64.7,62.5,63.4,61.0,57.6,94,88,76,30.12,29.98,12,7,13,0.42
2013-4-30,66.8,64.1,61.7,63.4,61.8,59.7,96,92,83,30.09,29.97,19,9,21,0.00
2013-5-1,68.7,64.1,59.2,64.3,60.9,56.1,96,90,78,30.23,30.07,27,12,31,0.13
2013-5-2,67.1,63.6,61.6,62.6,60.1,56.9,96,89,72,30.26,30.18,28,21,30,0.02
2013-5-3,64.1,61.5,58.7,60.0,56.2,50.7,93,83,71,30.19,30.12,35,25,40,0.00
2013-5-4,60.4,59.0,56.6,57.4,55.9,54.3,95,90,84,30.11,30.00,31,25,33,0.16
2013-5-5,64.8,61.7,58.8,61.7,59.3,55.7,94,92,88,30.03,29.96,27,22,29,0.13
2013-5-6,68.9,66.1,62.6,64.3,62.1,59.6,93,87,80,29.99,29.86,16,10,21,0.77
2013-5-7,69.9,63.4,58.9,62.6,58.1,52.1,96,83,55,29.96,29.85,16,5,17,0.04
2013-5-8,70.5,65.5,58.5,61.4,59.1,54.6,94,80,59,30.02,29.92,15,6,19,0.00
2013-5-9,75.0,69.0,64.3,65.9,62.8,60.5,91,81,67,30.06,29.96,15,6,17,0.00
2013-5-10,76.9,71.0,63.3,70.4,66.0,61.3,95,85,69,30.08,30.02,14,6,18,0.00
2013-5-11,77.7,73.9,71.1,72.1,68.9,66.2,92,84,75,30.03,29.83,19,12,24,0.00
2013-5-12,77.6,72.1,65.7,67.5,64.8,60.1,92,78,61,29.96,29.76,12,5,12,0.00
2013-5-13,66.2,63.2,58.4,58.1,48.0,38.0,79,59,37,30.11,29.95,23,10,26,0.00
2013-5-14,68.8,60.6,49.5,49.9,40.8,30.7,71,50,26,30.22,30.12,13,5,14,0.00
2013-5-15,74.4,69.4,62.6,62.8,58.5,48.9,79,69,58,30.14,29.94,22,12,26,0.00
2013-5-16,81.3,73.1,67.6,67.6,64.8,62.2,84,76,59,29.97,29.90,12,8,22,0.00
2013-5-17,80.6,74.5,70.3,71.8,67.1,64.2,88,78,58,30.12,29.95,7,4,8,0.00
2013-5-18,78.0,74.2,70.7,72.1,69.2,66.2,90,85,74,30.17,30.10,10,7,12,0.00
2013-5-19,78.6,74.6,70.3,70.7,68.7,65.7,91,82,71,30.17,30.09,16,8,18,0.08
2013-5-20,77.5,73.7,69.9,70.1,68.4,65.3,93,84,74,30.15,30.06,18,12,24,0.31
2013-5-21,78.6,75.4,72.0,71.4,69.8,68.3,91,83,72,30.08,30.00,15,11,20,0.00
2013-5-22,78.8,75.2,72.4,72.5,70.8,69.5,92,86,77,30.05,29.98,16,10,24,0.00
2013-5-23,76.4,73.0,69.4,71.8,70.1,67.3,95,91,81,30.00,29.83,17,8,20,0.96
2013-5-24,79.3,71.9,61.7,71.3,64.3,50.2,95,78,57,30.09,29.76,16,4,17,0.00
2013-5-25,70.7,61.2,51.2,52.7,43.0,36.3,79,53,30,30.21,30.10,10,4,13,0.00
2013-5-26,68.3,63.6,57.5,56.2,53.5,47.6,86,71,50,30.19,30.13,10,3,12,0.00
2013-5-27,73.5,73.4,73.4,55.2,54.8,54.3,53,52,51,30.25,30.25,5,5,7,0.00
2013-5-28,76.5,73.8,70.7,68.8,64.8,62.5,83,74,66,30.28,30.19,12,7,13,0.00
2013-5-29,78.5,75.2,69.2,70.0,67.8,65.8,92,78,65,30.26,30.18,12,6,14,0.00
2013-5-30,77.2,76.5,76.0,71.8,70.8,70.2,86,83,80,30.22,30.20,12,10,12,0.00
2013-5-31,80.5,76.9,69.2,73.1,71.2,67.1,93,83,75,30.23,30.14,13,8,16,0.00
2013-6-1,80.7,77.1,72.5,73.2,71.0,69.0,92,82,68,30.17,30.08,14,7,16,0.00
2013-6-2,81.0,77.5,73.4,73.9,71.1,69.6,90,81,72,30.08,29.96,16,10,20,0.00
2013-6-3,78.3,75.3,69.8,74.7,72.0,68.0,95,90,85,29.98,29.86,19,12,21,1.21
2013-6-4,76.9,74.0,70.1,72.5,69.8,65.5,96,87,70,30.07,29.89,24,12,25,0.00
2013-6-5,75.0,73.7,72.0,69.4,64.5,60.5,84,73,61,30.11,30.02,24,17,25,0.00
2013-6-6,78.3,75.8,74.0,73.5,70.5,67.5,93,84,77,30.04,29.85,14,10,16,0.21
2013-6-7,80.1,77.0,74.2,76.1,73.9,71.6,97,90,84,29.87,29.59,30,17,36,0.74
2013-6-8,81.9,78.3,75.5,76.9,74.7,72.9,93,89,80,30.09,29.85,19,12,23,0.00
2013-6-9,84.7,78.2,75.4,77.9,74.5,70.7,94,89,71,30.15,30.09,18,9,19,0.00
2013-6-10,81.7,78.6,75.7,76.3,74.6,72.4,92,88,79,30.14,29.98,20,15,26,0.00
2013-6-11,82.3,78.4,74.1,75.3,73.3,69.9,93,85,75,30.00,29.85,19,10,23,0.18
2013-6-12,86.6,80.2,73.5,76.6,72.6,67.4,96,79,54,29.95,29.86,13,5,18,0.00
2013-6-13,87.1,81.9,76.7,79.2,76.3,65.7,95,83,59,29.87,29.62,22,11,27,0.00
2013-6-14,78.6,73.4,68.5,68.9,62.7,56.7,95,71,49,29.99,29.66,21,7,23,0.32
2013-6-15,82.1,74.3,61.6,64.2,60.3,56.7,92,63,42,30.09,29.99,15,5,16,0.00
2013-6-16,81.1,77.2,73.6,68.5,66.3,61.9,80,69,55,30.14,30.04,15,8,19,0.00
2013-6-17,80.2,77.8,74.8,72.5,69.6,66.0,83,76,70,30.06,29.97,17,10,22,0.00
2013-6-18,83.6,78.7,72.7,76.9,74.1,70.3,94,86,74,29.99,29.79,16,10,20,0.30
2013-6-19,79.2,73.1,71.0,74.0,69.7,65.9,96,89,81,30.07,29.81,24,12,26,1.08
2013-6-20,72.0,71.3,70.5,68.8,67.8,66.9,91,89,86,30.11,30.05,21,15,24,0.00
2013-6-21,80.3,77.8,76.5,73.7,72.9,71.7,90,85,78,30.17,30.13,10,5,10,0.00
2013-6-22,77.8,75.6,72.2,74.7,72.5,69.9,95,90,84,30.20,30.14,14,8,17,0.35
2013-6-23,80.9,77.9,73.5,75.9,74.5,71.4,95,90,83,30.21,30.15,15,7,15,0.10
2013-6-24,83.1,79.5,76.2,75.8,74.8,71.5,94,86,76,30.22,30.10,15,7,20,0.00
2013-6-25,83.8,79.7,76.1,76.8,74.9,70.9,92,86,77,30.14,30.00,13,8,18,0.00
2013-6-26,83.4,80.2,77.5,76.4,75.1,73.1,92,85,76,30.05,29.92,16,9,19,0.00
2013-6-27,81.7,78.6,75.6,76.7,74.4,70.6,91,87,84,29.93,29.86,17,9,20,0.00
2013-6-28,83.9,80.4,75.6,78.6,76.8,71.5,95,89,82,29.80,29.64,18,13,22,0.26
2013-6-29,82.0,80.1,78.5,77.5,75.5,72.8,92,86,79,29.79,29.64,22,16,30,0.00
2013-6-30,80.1,78.0,72.6,76.6,74.5,70.8,95,89,81,29.91,29.76,22,13,27,0.49
2013-7-1,80.3,77.8,74.6,77.0,74.7,71.9,93,90,86,30.07,29.88,24,14,29,0.14
2013-7-2,83.8,79.9,72.5,78.4,76.0,70.0,94,88,82,30.17,30.06,17,11,18,0.07
2013-7-3,81.1,80.7,80.5,77.2,76.8,76.3,89,88,87,30.27,30.25,12,10,12,0.08
2013-7-4,84.0,81.6,79.1,77.4,75.9,74.1,89,83,73,30.29,30.23,12,8,16,0.00
2013-7-5,84.6,81.9,79.1,77.3,75.6,73.9,90,81,75,30.29,30.20,12,9,15,0.00
2013-7-6,83.6,81.0,77.9,75.8,74.3,72.8,88,80,70,30.25,30.15,11,6,13,0.00
2013-7-7,84.3,80.5,75.7,74.6,72.4,70.5,85,77,65,30.20,30.09,13,7,17,0.00
2013-7-8,83.7,80.4,76.7,74.5,72.5,71.2,84,77,68,30.18,30.11,14,8,17,0.00
2013-7-9,83.9,81.1,79.0,76.9,74.9,71.2,86,82,72,30.18,30.10,15,9,18,0.00
2013-7-10,84.5,81.3,78.1,76.6,74.2,71.8,87,79,66,30.13,29.99,18,10,24,0.01
2013-7-11,83.5,79.7,74.3,77.6,75.2,72.1,96,86,76,30.01,29.90,18,11,20,1.32
2013-7-12,81.5,77.2,70.8,76.0,73.6,68.9,96,89,80,29.98,29.87,17,6,19,1.77
2013-7-13,84.6,80.0,76.1,78.1,75.8,73.5,93,87,78,30.19,29.97,17,8,20,0.06
2013-7-14,83.4,81.6,79.6,77.4,76.2,75.2,90,84,77,30.27,30.18,16,10,19,0.00
2013-7-15,83.7,81.7,80.3,77.3,75.9,74.6,88,83,77,30.28,30.22,13,8,15,0.00
2013-7-16,88.7,81.8,74.0,78.5,75.0,72.7,96,81,61,30.25,30.14,11,4,13,0.00
2013-7-17,87.8,81.9,76.8,78.2,75.0,71.2,91,80,58,30.17,30.08,15,6,17,0.00
2013-7-18,87.5,81.5,74.2,75.5,73.2,69.7,95,77,58,30.12,30.05,10,4,14,0.00
2013-7-19,85.8,82.4,79.2,77.5,75.8,74.1,90,81,70,30.11,30.02,17,8,21,0.00
2013-7-20,85.6,81.8,75.4,77.0,74.8,72.5,93,79,69,30.05,29.97,18,11,22,0.09
2013-7-21,82.9,80.0,75.6,76.4,74.9,72.6,93,85,77,30.01,29.92,17,9,21,0.20
2013-7-22,84.5,80.8,77.2,77.5,76.2,74.7,94,86,74,29.96,29.83,15,8,18,0.00
2013-7-23,83.8,80.5,78.2,77.0,75.5,73.9,91,85,76,29.86,29.73,15,9,20,0.00
2013-7-24,87.3,81.5,77.4,79.0,76.5,74.9,93,85,69,29.80,29.72,14,6,17,0.00
2013-7-25,83.4,78.5,74.3,76.7,73.7,70.2,96,85,72,29.96,29.75,16,6,17,0.24
2013-7-26,79.2,76.6,72.1,72.0,70.3,68.7,92,81,73,30.06,29.97,15,8,17,0.00
2013-7-27,82.8,79.9,70.8,76.3,72.3,67.1,89,78,69,30.03,29.95,16,8,18,0.00
2013-7-28,85.9,80.7,75.2,78.1,75.9,72.9,95,86,72,30.01,29.86,17,10,21,0.43
2013-7-29,84.2,78.4,72.0,77.3,74.4,68.2,94,88,76,30.12,29.99,13,5,17,1.45
2013-7-30,80.8,76.8,71.8,75.3,72.9,70.6,97,88,77,30.18,30.11,17,7,17,1.54
2013-7-31,81.7,79.5,75.7,74.7,72.4,70.1,92,79,69,30.12,30.02,13,9,14,0.00
2013-8-1,80.9,78.4,71.6,76.2,74.2,70.1,96,87,82,30.02,29.87,11,7,16,0.36
2013-8-2,84.2,80.3,75.5,77.8,75.7,73.0,93,86,77,30.02,29.88,15,7,18,0.02
2013-8-3,85.5,81.9,79.3,78.9,76.8,75.1,92,85,72,30.02,29.91,16,8,16,0.00
2013-8-4,85.6,78.5,73.9,76.8,73.2,65.9,96,84,72,29.99,29.84,13,4,16,1.07
2013-8-5,80.1,75.7,66.6,67.4,63.8,54.6,90,68,42,30.06,29.97,15,7,15,0.00
2013-8-6,81.9,78.3,69.6,71.7,68.4,63.8,84,72,64,30.06,29.98,10,5,12,0.00
2013-8-7,83.7,80.8,78.6,75.7,72.6,69.5,83,76,70,30.09,30.03,11,7,13,0.00
2013-8-8,85.5,82.0,79.8,79.1,76.9,74.8,88,85,77,30.06,30.00,10,7,12,0.00
2013-8-9,86.5,82.4,79.8,78.6,77.2,74.6,91,84,70,30.07,30.01,16,9,20,0.00
2013-8-10,86.8,82.7,76.0,79.1,77.5,72.4,93,84,75,30.11,30.00,15,8,18,0.00
2013-8-11,86.6,81.8,76.0,80.4,77.6,72.4,93,87,75,30.08,30.00,11,4,13,0.36
2013-8-12,89.1,82.9,76.8,80.8,78.2,74.1,93,86,71,30.04,29.93,14,5,17,0.00
2013-8-13,87.0,82.8,76.4,80.9,78.5,72.8,93,87,77,29.94,29.77,17,9,20,0.04
2013-8-14,82.2,76.1,71.5,79.6,70.7,62.0,96,84,68,30.02,29.76,22,8,23,0.31
2013-8-15,74.2,70.1,67.5,68.3,66.0,61.8,95,87,70,30.08,30.01,21,12,24,0.75
2013-8-16,74.5,71.7,70.1,69.8,69.1,67.9,96,92,85,30.10,30.00,12,7,15,0.00
2013-8-17,78.3,74.7,69.8,75.7,72.7,67.2,97,94,87,30.11,30.03,15,8,20,0.22
2013-8-18,83.9,78.0,72.4,77.3,74.4,71.5,98,89,72,30.16,30.08,12,4,13,0.01
2013-8-19,78.9,76.6,73.9,76.1,74.4,72.4,96,93,86,30.14,30.06,19,8,19,0.39
2013-8-20,80.3,77.8,74.2,74.6,73.2,71.4,95,86,78,30.15,30.06,14,8,16,0.00
2013-8-21,83.8,80.1,75.2,77.4,75.5,73.1,96,86,78,30.20,30.10,9,5,10,0.00
2013-8-22,86.4,80.7,73.4,78.1,75.7,71.9,95,85,74,30.11,29.99,9,4,13,0.00
2013-8-23,85.2,78.5,71.2,78.3,73.8,67.6,95,86,70,30.00,29.89,14,4,17,0.47
2013-8-24,79.1,75.8,71.1,72.6,69.2,65.3,97,81,65,30.20,29.97,29,17,31,0.01
2013-8-25,76.6,74.6,69.9,69.2,65.7,62.8,81,74,66,30.29,30.20,28,20,31,0.00
2013-8-26,80.5,73.6,65.7,69.6,63.2,54.0,93,72,40,30.25,30.10,12,5,13,0.00
2013-8-27,81.9,75.3,66.2,68.7,65.0,62.0,90,72,52,30.10,29.96,12,5,14,0.00
2013-8-28,83.1,78.9,74.9,76.2,73.0,68.3,90,82,74,29.98,29.88,11,5,15,0.00
2013-8-29,85.9,79.9,76.6,76.6,74.3,71.4,90,83,72,29.95,29.81,26,11,29,0.01
2013-8-30,79.4,76.6,71.8,75.4,72.0,68.8,93,86,80,30.01,29.92,21,10,21,0.00
2013-8-31,85.2,80.1,72.6,77.3,74.6,70.8,96,84,69,29.97,29.88,9,4,10,0.00
2013-9-1,84.6,81.0,76.7,78.8,77.0,74.8,95,88,78,29.92,29.83,17,8,20,0.00
2013-9-2,84.9,80.7,72.2,80.1,76.9,70.4,95,88,84,29.90,29.80,14,9,16,1.17
2013-9-3,85.1,78.8,71.2,78.2,75.0,69.1,98,89,71,29.91,29.80,16,6,19,1.57
2013-9-4,81.9,76.9,69.8,76.3,73.0,68.6,97,88,78,30.05,29.91,11,5,12,0.00
2013-9-5,83.7,77.9,73.8,77.6,75.1,72.7,97,91,78,30.06,29.99,8,2,10,0.38
2013-9-6,81.0,76.8,71.1,76.6,72.3,67.6,97,86,74,30.08,30.00,30,15,33,0.01
2013-9-7,76.3,74.9,71.3,68.5,63.4,59.6,77,68,57,30.07,29.97,24,13,25,0.00
2013-9-8,81.5,75.5,64.5,71.4,66.8,60.6,89,75,64,29.98,29.88,10,5,14,0.00
2013-9-9,81.7,77.8,72.4,74.9,72.8,70.6,95,85,75,30.12,29.96,14,6,15,0.00
2013-9-10,82.1,79.2,74.7,75.1,72.5,66.2,90,80,59,30.20,30.12,15,7,15,0.00
2013-9-11,81.6,78.7,72.8,73.9,71.1,68.6,88,78,70,30.18,30.07,11,5,11,0.00
2013-9-12,82.8,77.8,70.6,74.6,72.4,69.1,95,84,73,30.07,29.80,12,5,14,0.00
2013-9-13,86.1,80.6,77.4,74.4,71.6,67.4,85,75,55,29.80,29.70,26,6,28,0.00
2013-9-14,77.7,74.2,70.3,69.3,66.6,63.7,84,77,70,30.09,29.79,23,16,26,0.00
2013-9-15,76.1,73.4,69.7,71.6,66.0,62.8,86,78,70,30.19,30.08,18,12,20,0.00
2013-9-16,81.9,75.8,70.2,76.2,72.2,66.6,96,89,75,30.13,30.00,14,4,14,0.13
2013-9-17,74.1,70.5,65.1,67.1,62.5,57.1,88,76,66,30.23,30.09,29,17,34,0.00
2013-9-18,72.3,68.4,61.8,63.3,60.0,57.2,90,75,60,30.22,30.13,20,11,23,0.00
2013-9-19,74.0,68.0,61.2,65.3,60.9,55.8,88,78,66,30.15,30.06,16,7,16,0.00
2013-9-20,75.1,72.0,66.9,67.3,64.8,61.3,90,78,63,30.07,29.96,14,7,15,0.00
2013-9-21,78.8,74.1,67.2,72.9,69.4,63.4,94,86,74,29.96,29.75,11,4,12,0.00
2013-9-22,79.3,73.3,69.0,74.6,70.1,62.9,96,90,79,29.80,29.64,19,9,25,1.92
2013-9-23,70.4,68.3,63.9,64.6,58.5,54.7,86,71,60,30.05,29.80,18,12,22,0.00
2013-9-24,68.7,64.7,56.8,58.0,55.2,52.8,88,72,60,30.07,29.94,16,6,19,0.00
2013-9-25,69.9,67.4,60.7,63.8,58.8,55.1,82,74,67,29.94,29.83,17,9,17,0.00
2013-9-26,74.5,69.4,64.5,66.5,63.1,60.8,91,81,66,29.94,29.82,23,11,23,0.02
2013-9-27,71.2,69.4,67.2,64.1,61.3,57.6,85,76,63,30.08,29.93,27,18,29,0.00
2013-9-28,72.9,68.7,65.5,64.6,62.4,59.7,88,81,64,30.13,30.05,24,16,30,0.00
2013-9-29,73.7,68.0,63.4,66.6,63.5,59.5,94,86,73,30.08,29.97,20,10,22,0.00
2013-9-30,74.1,66.3,58.5,64.3,60.6,57.3,96,82,64,30.04,29.95,12,4,17,0.00
2013-10-1,73.0,66.8,57.5,64.1,59.4,54.5,96,78,54,30.10,30.01,14,5,15,0.00
2013-10-2,79.1,70.4,60.4,70.3,64.4,57.9,93,82,60,30.11,30.03,8,3,10,0.00
2013-10-3,78.3,73.2,65.4,72.2,68.7,64.2,96,86,73,30.13,30.08,10,4,13,0.00
2013-10-4,80.1,74.9,68.8,71.4,68.9,66.3,95,82,64,30.13,30.05,8,3,9,0.00
2013-10-5,80.4,75.0,67.4,73.0,69.6,66.2,96,84,66,30.10,30.05,8,3,9,0.00
2013-10-6,80.8,77.6,75.2,74.3,71.8,70.1,90,82,73,30.06,29.97,10,6,12,0.00
2013-10-7,80.6,78.6,76.9,74.5,73.5,71.9,90,84,76,29.97,29.85,15,10,17,0.00
2013-10-8,78.1,68.5,63.9,74.0,66.2,63.0,98,93,66,30.03,29.88,31,18,39,0.65
2013-10-9,68.5,66.0,63.0,67.6,65.2,62.4,98,97,96,30.01,29.82,26,16,43,0.78
2013-10-10,67.2,64.1,60.0,65.5,62.6,59.1,98,95,88,29.85,29.78,10,5,13,0.00
2013-10-11,66.4,62.8,59.7,63.1,61.0,58.8,98,94,88,29.92,29.82,5,3,7,0.01
2013-10-12,69.6,66.0,63.1,65.5,63.6,61.7,96,92,86,30.01,29.90,4,1,5,0.00
2013-10-13,75.8,70.1,65.7,70.1,67.7,64.8,98,93,80,30.08,29.99,22,11,25,0.00
2013-10-14,71.9,69.9,67.2,69.4,66.9,63.7,94,90,86,30.10,30.04,25,16,31,0.01
2013-10-15,72.0,68.0,65.4,68.6,65.4,63.1,96,91,88,30.08,29.95,17,9,17,0.00
2013-10-16,71.1,68.9,67.3,68.0,66.8,65.9,96,93,89,29.97,29.91,11,5,13,0.00
2013-10-17,73.7,68.9,62.2,68.7,65.8,61.6,98,90,75,29.96,29.86,12,4,14,0.00
2013-10-18,71.5,70.0,68.0,69.1,66.7,64.6,95,90,80,29.99,29.86,15,7,17,0.06
2013-10-19,75.2,71.3,67.8,72.3,70.0,67.1,98,96,90,29.95,29.82,12,3,12,0.39
2013-10-20,71.4,65.0,61.0,70.2,59.5,55.5,96,83,75,30.08,29.84,17,9,21,0.01
2013-10-21,67.3,63.4,59.1,61.1,57.0,51.8,90,80,70,30.11,29.96,18,8,19,0.00
2013-10-22,67.1,63.2,59.6,60.7,57.5,53.3,92,82,67,29.97,29.82,7,2,7,0.02
2013-10-23,71.5,62.5,54.5,61.6,57.1,47.4,97,83,55,29.91,29.62,9,4,11,0.39
2013-10-24,60.1,51.6,43.3,47.3,40.5,37.0,83,67,43,30.14,29.91,7,3,12,0.00
2013-10-25,56.1,50.2,46.0,43.0,37.1,31.4,83,62,40,30.31,30.13,12,5,16,0.00
2013-10-26,58.7,47.2,42.2,43.5,37.3,33.4,78,69,54,30.31,30.23,7,4,13,0.00
2013-11-1,75.7,72.1,67.3,71.7,69.2,65.8,96,91,86,29.96,29.73,17,10,0,0.11
2013-11-2,74.9,67.2,61.7,71.8,64.5,58.4,96,91,83,29.84,29.67,13,4,6,0.41
2013-11-3,61.5,57.4,53.2,59.5,47.0,40.5,93,69,52,30.29,29.83,17,7,17,0.01
2013-11-4,56.3,54.0,52.3,50.9,43.9,37.6,89,69,55,30.45,30.29,27,14,31,0.00
2013-11-5,67.1,61.2,54.7,58.9,55.9,50.9,91,83,71,30.41,30.35,24,15,29,0.00
2013-11-6,65.6,63.0,59.9,64.1,61.0,56.8,98,93,85,30.35,30.09,19,10,20,0.18
2013-11-7,69.7,66.1,58.1,68.2,64.3,49.1,98,94,70,30.09,29.87,13,2,14,0.15
2013-11-8,57.5,51.2,44.8,47.8,37.0,30.4,80,59,42,30.28,29.98,16,7,19,0.00
2013-11-9,57.3,50.6,42.0,52.2,40.4,33.4,88,68,60,30.34,30.18,12,4,14,0.00
2013-11-10,67.4,58.6,51.2,53.4,47.9,40.1,90,70,43,30.18,30.05,8,3,10,0.00
2013-11-11,56.5,52.2,45.7,46.9,43.6,40.2,86,73,66,30.28,30.13,15,8,19,0.00
2013-11-12,65.6,50.6,37.5,47.0,40.5,30.9,93,71,39,30.28,29.99,23,8,23,0.00
2013-11-13,42.9,38.1,33.7,33.0,25.8,21.1,93,62,46,30.45,30.28,18,8,21,0.02
2013-11-14,55.9,43.7,31.7,42.6,31.2,21.6,81,63,27,30.47,30.34,6,2,7,0.00
2013-11-15,60.8,53.8,43.7,58.1,49.6,40.7,95,86,73,30.36,30.21,12,2,12,0.33
2013-11-16,63.8,60.1,57.4,61.1,58.8,56.6,98,96,90,30.23,30.15,13,5,13,0.05
2013-11-17,67.8,62.4,56.5,66.9,61.0,55.7,99,95,88,30.16,29.97,12,4,12,0.02
2013-11-18,75.0,68.1,59.6,70.7,65.0,51.5,98,90,68,29.96,29.75,12,6,13,0.06
2013-11-19,59.2,52.5,47.4,47.0,38.7,34.7,72,60,47,30.22,29.85,21,12,25,0.00
2013-11-20,57.2,52.1,46.9,50.2,45.7,39.4,86,79,73,30.35,30.20,26,16,30,0.00
2013-11-21,60.6,56.8,54.0,58.6,55.0,50.2,97,94,87,30.40,30.33,15,6,15,0.01
2013-11-22,68.1,60.7,53.9,62.5,58.1,52.3,96,91,79,30.35,30.08,7,4,7,0.00
2013-11-23,65.2,58.3,50.8,62.4,54.6,45.5,95,88,76,30.08,29.99,21,6,21,0.04
2013-11-24,49.7,38.0,31.4,42.4,20.6,12.0,76,50,36,30.49,30.04,13,8,20,0.00
2013-11-25,43.3,35.7,26.6,40.3,26.1,14.2,89,68,49,30.54,30.35,14,8,15,0.00
2013-11-26,67.4,55.5,41.5,66.8,53.3,38.8,98,92,83,30.34,29.64,25,8,25,0.78
2013-11-27,66.6,54.0,38.2,66.3,53.2,34.7,99,97,87,30.06,29.42,22,10,22,0.92
2013-11-28,41.3,36.0,29.8,30.8,27.5,24.8,85,72,57,30.46,30.08,13,6,17,0.00
2013-11-29,49.1,43.9,36.9,36.0,33.8,29.5,82,68,49,30.55,30.44,17,9,19,0.00
2013-11-30,53.9,46.9,40.5,46.9,42.4,35.9,93,85,75,30.53,30.30,23,11,25,0.00
2013-12-1,54.9,48.3,43.6,50.0,46.5,42.3,97,93,82,30.28,30.00,8,4,11,0.01
2013-12-2,53.8,50.8,47.7,49.8,47.4,43.9,97,88,80,29.99,29.75,11,5,11,0.06
2013-12-3,57.4,48.9,40.3,50.6,43.4,37.0,94,82,48,30.01,29.82,4,2,5,0.00
2013-12-4,62.1,58.2,54.0,60.4,56.4,50.3,98,94,85,30.09,30.00,6,2,6,0.33
2013-12-5,69.2,60.0,51.6,66.6,59.1,51.1,99,97,90,30.16,30.08,7,3,7,0.01
2013-12-6,74.7,69.1,63.0,69.8,66.4,60.8,99,91,82,30.14,30.05,13,9,17,0.01
2013-12-7,70.6,56.3,44.9,68.7,54.3,43.4,96,93,84,30.37,30.05,20,13,22,0.42
2013-12-8,49.3,46.0,44.3,47.4,44.6,43.0,97,95,90,30.36,30.23,20,11,23,0.14
2013-12-9,71.2,56.1,44.7,67.1,54.7,43.9,98,95,86,30.22,30.06,9,3,9,0.00
2013-12-10,67.9,56.1,39.7,65.2,54.7,37.8,99,95,90,30.28,29.82,15,5,17,0.15
2013-12-11,48.6,40.5,33.8,37.5,31.5,27.6,94,71,51,30.43,30.26,11,3,11,0.00
2013-12-12,45.5,39.9,34.8,34.3,31.5,29.3,81,72,53,30.37,30.22,15,5,21,0.00
2013-12-13,49.2,39.6,30.5,32.8,28.8,20.7,91,67,37,30.40,30.28,9,2,9,0.00
2013-12-14,64.7,54.1,39.7,64.1,47.7,27.8,98,79,55,30.31,29.75,25,11,26,0.71
2013-12-15,63.3,54.6,43.1,62.7,52.4,39.8,98,92,80,30.02,29.66,7,3,10,0.15
2013-12-16,55.7,45.0,35.3,43.7,37.0,31.9,89,75,50,30.17,30.03,7,2,12,0.00
2013-12-17,60.9,54.4,43.9,49.4,46.0,41.2,92,74,59,30.16,29.92,13,6,16,0.00
2013-12-18,57.1,44.9,36.8,46.2,32.2,25.4,81,62,39,30.30,29.94,9,4,11,0.00
2013-12-19,59.1,48.4,38.4,47.9,39.5,26.9,94,72,59,30.34,30.26,7,2,10,0.00
2013-12-20,64.3,56.7,48.5,59.6,54.3,47.7,98,92,82,30.26,30.15,6,2,7,0.00
2013-12-21,63.7,61.0,58.2,62.7,59.7,57.4,98,96,92,30.18,30.11,7,4,8,0.01
2013-12-22,74.8,65.9,62.1,70.0,64.4,61.5,98,95,85,30.15,30.09,13,7,15,0.47
2013-12-23,72.4,67.0,61.7,68.7,65.2,60.5,98,94,86,30.13,30.02,13,10,15,0.14
2013-12-24,57.2,44.7,38.5,55.8,40.4,29.2,96,85,68,30.35,30.02,14,7,16,0.37
2013-12-25,42.1,38.5,33.8,36.8,32.0,25.9,89,78,70,30.49,30.35,16,9,18,0.00
2013-12-26,50.9,44.0,39.8,48.9,41.5,36.8,96,91,82,30.34,30.20,7,4,11,0.25
2013-12-27,50.1,45.4,40.4,39.9,36.8,34.5,87,72,55,30.39,30.28,18,10,19,0.00
2013-12-28,53.8,47.0,39.8,48.1,40.0,34.4,85,77,62,30.38,30.16,9,5,9,0.00
2013-12-29,66.0,61.3,53.0,64.2,58.2,50.7,96,90,81,30.14,29.71,21,10,25,0.24
2013-12-30,56.8,51.0,45.0,50.0,47.1,44.2,98,87,67,30.09,29.90,9,2,11,0.01
2013-12-31,51.8,46.3,40.7,45.4,40.7,34.7,96,82,56,30.34,30.06,8,2,10,0.00
2014-1-1,52.8,45.8,38.1,48.5,38.6,31.9,96,76,61,30.40,30.13,9,3,10,0.09
2014-1-2,58.9,51.7,47.6,58.6,50.9,46.8,99,97,94,30.12,29.48,8,2,10,0.85